Cadgwith Cove Beach 's weather forecast for the week

Current weather in Cadgwith Cove Beach

Weather

Partly cloudy
Cloud cover 49%

Temperature

13°C
Minimum 11°C
Maximum 14°C

Wind

10 km/h
Wind gust 19 km/h

Humidity

78%
Dew point 9°C
Temp Feels Precip Humidity
00:00am Partly cloudy 11°C 10°C 0 mm 79%
03:00am Partly cloudy 13°C 10°C 0 mm 76%
06:00am Partly cloudy 13°C 11°C 0 mm 75%
09:00am Partly cloudy 13°C 13°C 0 mm 71%
12:00pm Sunny 13°C 13°C 0 mm 66%
15:00pm Partly cloudy 14°C 13°C 0 mm 65%
18:00pm Partly cloudy 13°C 13°C 0 mm 71%
21:00pm Partly cloudy 13°C 12°C 0 mm 78%
Temp Feels Precip Humidity
00:00am Partly cloudy 13°C 11°C 0 mm 84%
03:00am Partly cloudy 13°C 12°C 0 mm 86%
06:00am Cloudy 13°C 12°C 0 mm 86%
09:00am Partly cloudy 13°C 12°C 0 mm 83%
12:00pm Overcast 13°C 12°C 0 mm 85%
15:00pm Light drizzle 13°C 12°C 0.2 mm 94%
18:00pm Patchy rain possible 14°C 12°C 0.1 mm 89%
21:00pm Cloudy 13°C 11°C 0 mm 90%
Temp Feels Precip Humidity
00:00am Patchy rain possible 13°C 11°C 0.1 mm 93%
03:00am Patchy rain possible 13°C 10°C 0.1 mm 89%
06:00am Light rain shower 13°C 10°C 0.2 mm 88%
09:00am Partly cloudy 13°C 11°C 0 mm 85%
12:00pm Overcast 14°C 12°C 0 mm 82%
15:00pm Partly cloudy 14°C 12°C 0 mm 81%
18:00pm Patchy rain possible 13°C 11°C 0.1 mm 90%
21:00pm Light rain 13°C 11°C 0.9 mm 96%
Temp Feels Precip Humidity
00:00am Light rain 13°C 11°C 1.1 mm 95%
03:00am Partly cloudy 14°C 11°C 0 mm 92%
06:00am Partly cloudy 14°C 11°C 0 mm 92%
09:00am Partly cloudy 14°C 12°C 0 mm 86%
12:00pm Cloudy 15°C 13°C 0 mm 80%
15:00pm Partly cloudy 15°C 13°C 0 mm 78%
18:00pm Partly cloudy 14°C 13°C 0 mm 84%
21:00pm Cloudy 13°C 12°C 0 mm 95%
Temp Feels Precip Humidity
00:00am Overcast 14°C 12°C 0 mm 95%
03:00am Patchy rain possible 14°C 12°C 0.1 mm 95%
06:00am Light drizzle 14°C 12°C 0.2 mm 96%
09:00am Overcast 14°C 12°C 0 mm 94%
12:00pm Overcast 14°C 12°C 0 mm 94%
15:00pm Patchy rain possible 14°C 12°C 0.1 mm 95%
18:00pm Overcast 14°C 12°C 0 mm 93%
21:00pm Cloudy 13°C 12°C 0 mm 94%
Temp Feels Precip Humidity
00:00am Patchy rain possible 13°C 12°C 0.1 mm 95%
03:00am Light rain 14°C 12°C 1.2 mm 95%
06:00am Moderate rain 13°C 12°C 2.9 mm 97%
09:00am Moderate rain 14°C 12°C 2.9 mm 96%
12:00pm Moderate rain 13°C 12°C 4 mm 96%
15:00pm Patchy rain possible 14°C 12°C 0.1 mm 86%
18:00pm Patchy light rain 13°C 11°C 1.8 mm 92%
21:00pm Moderate rain 12°C 9°C 3.7 mm 89%
Temp Feels Precip Humidity
00:00am Moderate rain 12°C 9°C 3.1 mm 86%
03:00am Patchy rain possible 13°C 9°C 0.1 mm 86%
06:00am Patchy rain possible 13°C 10°C 0.1 mm 82%
09:00am Partly cloudy 13°C 11°C 0 mm 78%
12:00pm Partly cloudy 14°C 12°C 0 mm 76%
15:00pm Patchy rain possible 14°C 12°C 0.1 mm 76%
18:00pm Partly cloudy 13°C 12°C 0 mm 78%
21:00pm Partly cloudy 12°C 10°C 0 mm 80%

Save your favorite locations, unlock more tidal information, less advertising and more...

Sign in to Tideschart with your Facebook account in one easy click (it's FREE!)